Tracking 23610 objects as of 19-Sep-2021
HD Live streaming from Space Station
objects crossing your sky now

NINGXIA-1 5

Track NINGXIA-1 5 now!
10-day predictions


NORAD ID: 44783
Int'l Code: 2019-076E
Perigee: 886.3 km
Apogee: 903.8 km
Inclination: 45.0 °
Period: 102.7 minutes
Semi major axis: 7266 km
RCS: Unknown
Launch date: November 13, 2019
Source: People's Republic of China (PRC)
Launch site: Taiyaun Space Center, China (TSC)
aabbcc
Your satellite tracking list
Your tracking list is empty




NASA's NSSDC Master Catalog

Two Line Element Set (TLE):
1 44783U 19076E   21262.52673753 -.00000143  00000-0 -86267-5 0  9994
2 44783  45.0102 355.1163 0012032 234.3684 125.6029 14.01699792 94884
Source of the keplerian elements: AFSPC